[Iaude] MPEC P25: 2024 LF12 [a=2.18,e=0.46,i=7.6,H=22.7]
    mpec at cfa.harvard.edu 
    mpec at cfa.harvard.edu
       
    Fri Aug  2 07:58:18 EDT 2024
    
    
  
M.P.E.C. 2024-P25                                Issued 2024 August 2, 11:56 UT
     The Minor Planet Electronic Circulars contain information on unusual
         minor planets, routine data on comets and natural satellites,
         and occasional editorial announcements.  They are published
    on behalf of Division F of the International Astronomical Union by the
          Minor Planet Center, Smithsonian Astrophysical Observatory,
                          Cambridge, MA 02138, U.S.A.
			  
             Prepared using the Tamkin Foundation Computer Network
                              MPC at CFA.HARVARD.EDU
            URL https://www.minorplanetcenter.net/    ISSN 1523-6714
                                   2024 LF12                                    
Observations:
     K24L12F* C2024 06 14.42259016 55 27.961+06 43 09.77         22.09wXEP025F51
     K24L12F  C2024 06 14.43459016 55 27.642+06 43 22.39         21.92wXEP025F51
     K24L12F  C2024 06 14.44657416 55 27.329+06 43 34.78         22.12wXEP025F51
     K24L12F  C2024 06 26.28159316 53 24.567+09 31 37.14         22.30wXEP025F52
     K24L12F  C2024 06 26.30528116 53 24.299+09 31 52.95         22.18wXEP025F52
     K24L12F  C2024 06 26.31723616 53 24.172+09 32 00.77         22.00wXEP025F52
     K24L12F  C2024 07 29.35911917 23 07.348+08 51 15.20         21.62wXEP025F51
     K24L12F  C2024 07 29.37071217 23 08.689+08 51 05.43         21.72wXEP025F51
     K24L12F  C2024 07 29.38234617 23 10.018+08 50 55.70         21.89wXEP025F51
     K24L12F  C2024 07 29.48251717 23 21.595+08 49 30.93               VEP025F51
     K24L12F  C2024 07 29.48315817 23 21.682+08 49 30.50         22.02GVEP025F51
     K24L12F 3C2024 08 01.29827317 29 36.065+08 07 45.29         21.52GVEP025T14
     K24L12F 3C2024 08 01.29930617 29 36.193+08 07 44.29         21.61GVEP025T14
     K24L12F 3C2024 08 01.30028417 29 36.318+08 07 43.36         21.71GVEP025T14
Observer details:
F51 Pan-STARRS 1, Haleakala.  Observers J. Herman, T. Lowe, P. Minguez, A.
    Schultz, I. Smith.  Measurers K. Chambers, T. de Boer, J. Fairlamb, H.
    Gao, M. Huber, C.-C. Lin, E. Magnier, Y. Ramanjooloo, R. Wainscoat, R.
    Weryk.  1.8-m Ritchey-Chretien + CCD.
F52 Pan-STARRS 2, Haleakala.  Observers J. Herman, T. Lowe, P. Minguez, A.
    Schultz, I. Smith.  Measurers K. Chambers, T. de Boer, J. Fairlamb, H.
    Gao, M. Huber, C.-C. Lin, E. Magnier, Y. Ramanjooloo, R. Wainscoat, R.
    Weryk.  1.8-m Ritchey-Chretien + CCD.
T14 Canada-France-Hawaii Telescope, Maunakea.  Observers R. Wainscoat, J.
    Silva, V. Khatu.  Measurers R. Weryk, R. Wainscoat.  3.6-m f/4.1 reflector
    + CCD.
Orbital elements:
2024 LF12                                                Earth MOID = 0.1897 AU
Epoch 2024 Oct. 17.0 TT = JDT 2460600.5                 Veres                   
M  19.75514              (2000.0)            P               Q                  
n   0.30631141     Peri.  131.93741     +0.67326952     +0.73939662             
a   2.1795187      Node   180.38590     -0.71145218     +0.64749565             
e   0.4611265      Incl.    7.59046     -0.20135530     +0.18450480             
P   3.22           H   22.71          G   0.15           U   5                  
Residuals in seconds of arc
240614 F51  0.0   0.2-    240626 F52  0.0   0.0     240729 F51  0.1-  0.1+
240614 F51  0.0   0.1+    240729 F51  0.5-  0.1+    240801 T14  0.1+  0.0
240614 F51  0.0   0.1+    240729 F51  0.0   0.0     240801 T14  0.1+  0.0
240626 F52  0.1+  0.1-    240729 F51  0.3+  0.1-    240801 T14  0.1+  0.0
240626 F52  0.1-  0.1+    240729 F51  0.2-  0.1-
Ephemeris:
2024 LF12                a,e,i = 2.18, 0.46, 8                   q = 1.1745
Date    TT    R. A. (2000) Decl.     Delta      r    Elong.  Phase     V
2024 07 03    16 54 08.0 +10 29 13   0.3046  1.2548   136.3    34.0    22.0
...
2024 07 18    17 04 36.2 +10 38 01   0.2771  1.2083   128.5    41.2    21.9
...
2024 07 26    17 16 36.4 +09 33 06   0.2657  1.1912   125.9    43.7    21.9
...
2024 08 01    17 28 54.6 +08 12 35   0.2587  1.1821   124.9    44.8    21.9
2024 08 02    17 31 14.9 +07 56 33   0.2577  1.1810   124.8    44.9    21.8
2024 08 03    17 33 40.3 +07 39 46   0.2567  1.1799   124.7    45.0    21.8
...
2024 08 09    17 49 58.5 +05 44 25   0.2520  1.1755   124.6    45.2    21.8
...
2024 08 17    18 16 16.9 +02 36 51   0.2495  1.1751   125.5    44.5    21.8
...
2024 09 01    19 16 38.3 -04 05 56   0.2614  1.1912   129.0    41.2    21.8
M. P. C. Staff               (C) Copyright 2024 MPC           M.P.E.C. 2024-P25
    
    
More information about the Iaude
mailing list